| time (UTC) | temp C | wind direction | speed KPH | gust KPH | rain 1hr cm | rain 24hr cm | rain mn cm | humidity % | barometer mb |
| 20260504181129 | 7 | 23 | 3.2 | 9.7 | 0.00 | 0.00 | 0.00 | 44 | 1018.1 |
| 20260504180628 | 8 | 224 | 9.7 | 22.5 | 0.00 | 0.00 | 0.00 | 47 | 1017.8 |
| 20260504180127 | 9 | 354 | 16.1 | 22.5 | 0.00 | 0.00 | 0.00 | 43 | 1018.1 |
| 20260504175623 | 9 | 11 | 4.8 | 12.9 | 0.00 | 0.00 | 0.00 | 42 | 1018.2 |
| 20260504175120 | 9 | 286 | 4.8 | 16.1 | 0.00 | 0.00 | 0.00 | 42 | 1018.1 |
| 20260504174618 | 10 | 299 | 3.2 | 6.4 | 0.00 | 0.00 | 0.00 | 42 | 1018.2 |
| 20260504174114 | 10 | 297 | 11.3 | 16.1 | 0.00 | 0.00 | 0.00 | 40 | 1018.1 |
| 20260504173611 | 10 | 321 | 1.6 | 16.1 | 0.00 | 0.00 | 0.00 | 40 | 1018.2 |
| 20260504173109 | 10 | 298 | 6.4 | 9.7 | 0.00 | 0.00 | 0.00 | 39 | 1018.1 |
| 20260504172605 | 11 | 265 | 4.8 | 9.7 | 0.00 | 0.00 | 0.00 | 37 | 1018.3 |
| 20260504172102 | 11 | 270 | 4.8 | 14.5 | 0.00 | 0.00 | 0.00 | 39 | 1018.2 |
| 20260504171558 | 12 | 26 | 3.2 | 14.5 | 0.00 | 0.00 | 0.00 | 38 | 1018.6 |
| 20260504171056 | 11 | 37 | 8.0 | 11.3 | 0.00 | 0.00 | 0.00 | 39 | 1018.5 |
| 20260504170551 | 10 | 15 | 6.4 | 14.5 | 0.00 | 0.00 | 0.00 | 38 | 1018.7 |
| 20260504150930 | 7 | 226 | 4.8 | 14.5 | 0.00 | 0.00 | 0.00 | 43 | 1019.1 |
| 20260504150426 | 8 | 275 | 1.6 | 12.9 | 0.00 | 0.00 | 0.00 | 43 | 1019.3 |
| 20260504140847 | 7 | 210 | 3.2 | 16.1 | 0.00 | 0.00 | 0.00 | 41 | 1019.0 |
| 20260504140343 | 7 | 268 | 6.4 | 12.9 | 0.00 | 0.00 | 0.00 | 41 | 1019.1 |
| 20260504130812 | 5 | 238 | 1.6 | 3.2 | 0.00 | 0.00 | 0.00 | 49 | 1019.0 |
| 20260504130308 | 4 | 217 | 3.2 | 4.8 | 0.00 | 0.00 | 0.00 | 46 | 1019.1 |
| 20260504120232 | 2 | 212 | 4.8 | 4.8 | 0.00 | 0.00 | 0.00 | 46 | 1018.6 |
| 20260504110659 | 2 | 202 | 4.8 | 4.8 | 0.00 | 0.00 | 0.00 | 50 | 1018.7 |
| 20260504110155 | 2 | 200 | 4.8 | 4.8 | 0.00 | 0.00 | 0.00 | 49 | 1018.9 |
| 20260504100119 | 3 | 202 | 6.4 | 6.4 | 0.00 | 0.00 | 0.00 | 49 | 1019.4 |
| 20260504081512 | 5 | 207 | 4.8 | 6.4 | 0.00 | 0.00 | 0.00 | 38 | 1020.0 |
| 20260504081008 | 6 | 237 | 4.8 | 6.4 | 0.00 | 0.00 | 0.00 | 36 | 1020.2 |
| 20260504080504 | 6 | 218 | 6.4 | 6.4 | 0.00 | 0.00 | 0.00 | 36 | 1020.2 |
| 20260504050317 | 7 | 248 | 1.6 | 6.4 | 0.00 | 0.00 | 0.00 | 37 | 1021.2 |
| 20260504045814 | 7 | 232 | 1.6 | 3.2 | 0.00 | 0.00 | 0.00 | 38 | 1021.4 |
| 20260504045314 | 7 | 234 | 3.2 | 3.2 | 0.00 | 0.00 | 0.00 | 38 | 1021.5 |
| 20260504044812 | 7 | 258 | 3.2 | 3.2 | 0.00 | 0.00 | 0.00 | 37 | 1021.5 |
| 20260504044309 | 7 | 253 | 1.6 | 6.4 | 0.00 | 0.00 | 0.00 | 37 | 1021.6 |
| 20260504043806 | 7 | 253 | 4.8 | 4.8 | 0.00 | 0.00 | 0.00 | 37 | 1021.6 |
| 20260504043303 | 7 | 252 | 3.2 | 11.3 | 0.00 | 0.00 | 0.00 | 37 | 1021.8 |
| 20260504042801 | 7 | 255 | 4.8 | 9.7 | 0.00 | 0.00 | 0.00 | 38 | 1021.8 |
| 20260504042257 | 7 | 248 | 3.2 | 6.4 | 0.00 | 0.00 | 0.00 | 38 | 1021.6 |
| 20260504041753 | 7 | 194 | 3.2 | 3.2 | 0.00 | 0.00 | 0.00 | 38 | 1022.0 |
| 20260504041249 | 7 | 256 | 1.6 | 4.8 | 0.00 | 0.00 | 0.00 | 38 | 1021.8 |
| 20260504040745 | 7 | 249 | 3.2 | 4.8 | 0.00 | 0.00 | 0.00 | 38 | 1021.9 |
| 20260504040243 | 7 | 215 | 3.2 | 9.7 | 0.00 | 0.00 | 0.00 | 38 | 1021.8 |
| 20260504035739 | 7 | 213 | 3.2 | 6.4 | 0.00 | 0.00 | 0.00 | 38 | 1021.9 |
| 20260504035236 | 7 | 247 | 4.8 | 9.7 | 0.00 | 0.00 | 0.00 | 38 | 1021.8 |
| 20260504034734 | 7 | 229 | 4.8 | 9.7 | 0.00 | 0.00 | 0.00 | 38 | 1021.8 |
| 20260504034231 | 7 | 255 | 1.6 | 4.8 | 0.00 | 0.00 | 0.00 | 38 | 1021.9 |
| 20260504033729 | 7 | 256 | 3.2 | 4.8 | 0.00 | 0.00 | 0.00 | 39 | 1021.9 |
| 20260504033226 | 8 | 257 | 1.6 | 9.7 | 0.00 | 0.00 | 0.00 | 38 | 1021.8 |
| 20260504032723 | 8 | 242 | 8.0 | 9.7 | 0.00 | 0.00 | 0.00 | 37 | 1021.9 |
| 20260504032220 | 8 | 261 | 12.9 | 14.5 | 0.00 | 0.00 | 0.00 | 37 | 1021.9 |
| 20260504031716 | 8 | 249 | 4.8 | 9.7 | 0.00 | 0.00 | 0.00 | 37 | 1021.6 |
| 20260504031214 | 8 | 228 | 8.0 | 11.3 | 0.00 | 0.00 | 0.00 | 37 | 1022.0 |
| 20260504030709 | 8 | 229 | 8.0 | 16.1 | 0.00 | 0.00 | 0.00 | 36 | 1021.9 |
| 20260504030207 | 8 | 233 | 14.5 | 22.5 | 0.00 | 0.00 | 0.00 | 35 | 1021.8 |
| 20260504025703 | 8 | 225 | 6.4 | 9.7 | 0.00 | 0.00 | 0.00 | 36 | 1021.8 |
| 20260504025200 | 8 | 196 | 3.2 | 14.5 | 0.00 | 0.00 | 0.00 | 37 | 1021.8 |
| 20260504024657 | 8 | 219 | 11.3 | 14.5 | 0.00 | 0.00 | 0.00 | 36 | 1021.9 |
| 20260504024153 | 8 | 243 | 11.3 | 17.7 | 0.00 | 0.00 | 0.00 | 36 | 1021.6 |
| 20260504023650 | 8 | 255 | 6.4 | 14.5 | 0.00 | 0.00 | 0.00 | 36 | 1021.6 |
| 20260504023146 | 8 | 238 | 4.8 | 6.4 | 0.00 | 0.00 | 0.00 | 39 | 1021.9 |
| 20260504022643 | 8 | 225 | 4.8 | 9.7 | 0.00 | 0.00 | 0.00 | 39 | 1021.8 |
| 20260504022138 | 7 | 213 | 11.3 | 14.5 | 0.00 | 0.00 | 0.00 | 40 | 1021.8 |
| 20260504021637 | 7 | 271 | 9.7 | 12.9 | 0.00 | 0.00 | 0.00 | 41 | 1021.8 |
| 20260504021133 | 7 | 290 | 4.8 | 12.9 | 0.00 | 0.00 | 0.00 | 43 | 1021.5 |
| 20260504020630 | 7 | 291 | 3.2 | 12.9 | 0.00 | 0.00 | 0.00 | 44 | 1021.4 |
| 20260504020126 | 7 | 263 | 4.8 | 11.3 | 0.00 | 0.00 | 0.00 | 44 | 1021.6 |
| 20260504015623 | 8 | 230 | 6.4 | 20.9 | 0.00 | 0.00 | 0.00 | 41 | 1021.5 |
| 20260504015119 | 8 | 241 | 3.2 | 6.4 | 0.00 | 0.00 | 0.00 | 40 | 1021.6 |
| 20260504014615 | 8 | 298 | 1.6 | 9.7 | 0.00 | 0.00 | 0.00 | 39 | 1021.5 |
| 20260504014113 | 8 | 267 | 4.8 | 14.5 | 0.00 | 0.00 | 0.00 | 39 | 1021.8 |
| 20260504013610 | 8 | 263 | 3.2 | 11.3 | 0.00 | 0.00 | 0.00 | 39 | 1021.8 |
| 20260504013107 | 9 | 242 | 6.4 | 14.5 | 0.00 | 0.00 | 0.00 | 38 | 1021.6 |
| 20260504012604 | 9 | 304 | 6.4 | 12.9 | 0.00 | 0.00 | 0.00 | 36 | 1021.5 |
| 20260504012102 | 10 | 330 | 3.2 | 4.8 | 0.00 | 0.00 | 0.00 | 36 | 1021.6 |
| 20260504011559 | 10 | 260 | 0.0 | 3.2 | 0.00 | 0.00 | 0.00 | 37 | 1021.6 |
| 20260504011055 | 10 | 262 | 0.0 | 3.2 | 0.00 | 0.00 | 0.00 | 35 | 1021.6 |
| 20260504010550 | 10 | 244 | 1.6 | 6.4 | 0.00 | 0.00 | 0.00 | 35 | 1021.5 |
| 20260504010047 | 10 | 280 | 1.6 | 9.7 | 0.00 | 0.00 | 0.00 | 34 | 1021.4 |
| 20260504005543 | 10 | 256 | 11.3 | 14.5 | 0.00 | 0.00 | 0.00 | 34 | 1021.5 |
| 20260504005041 | 10 | 229 | 3.2 | 6.4 | 0.00 | 0.00 | 0.00 | 33 | 1021.5 |
| 20260504004539 | 10 | 278 | 0.0 | 4.8 | 0.00 | 0.00 | 0.00 | 32 | 1021.4 |
| 20260504004036 | 11 | 321 | 9.7 | 11.3 | 0.00 | 0.00 | 0.00 | 30 | 1021.4 |
| 20260504003532 | 11 | 323 | 4.8 | 6.4 | 0.00 | 0.00 | 0.00 | 32 | 1021.2 |
| 20260504003029 | 11 | 289 | 4.8 | 9.7 | 0.00 | 0.00 | 0.00 | 30 | 1021.4 |
| 20260504002525 | 11 | 312 | 11.3 | 25.7 | 0.00 | 0.00 | 0.00 | 30 | 1021.4 |
| 20260504002023 | 11 | 283 | 19.3 | 24.1 | 0.00 | 0.00 | 0.00 | 30 | 1021.5 |
| 20260504001521 | 11 | 235 | 9.7 | 20.9 | 0.00 | 0.00 | 0.00 | 30 | 1021.2 |
| 20260504001016 | 11 | 286 | 3.2 | 14.5 | 0.00 | 0.00 | 0.00 | 30 | 1021.1 |
| 20260504000514 | 11 | 291 | 6.4 | 9.7 | 0.00 | 0.00 | 0.00 | 29 | 1021.2 |
| 20260504000011 | 11 | 316 | 3.2 | 4.8 | 0.00 | 0.00 | 0.00 | 31 | 1021.1 |
| 20260503235509 | 11 | 295 | 4.8 | 20.9 | 0.00 | 0.00 | 0.00 | 32 | 1021.4 |
| 20260503235006 | 11 | 331 | 12.9 | 16.1 | 0.00 | 0.00 | 0.00 | 32 | 1021.4 |
| 20260503234503 | 11 | 279 | 12.9 | 17.7 | 0.00 | 0.00 | 0.00 | 31 | 1021.2 |
| 20260503234002 | 11 | 331 | 9.7 | 16.1 | 0.00 | 0.00 | 0.00 | 33 | 1021.2 |
| 20260503233457 | 11 | 332 | 14.5 | 17.7 | 0.00 | 0.00 | 0.00 | 32 | 1021.6 |
| 20260503232954 | 11 | 283 | 11.3 | 24.1 | 0.00 | 0.00 | 0.00 | 33 | 1021.6 |
| 20260503232451 | 12 | 100 | 11.3 | 27.4 | 0.00 | 0.00 | 0.00 | 31 | 1021.5 |
| 20260503231949 | 12 | 327 | 14.5 | 16.1 | 0.00 | 0.00 | 0.00 | 26 | 1021.5 |
| 20260503231446 | 12 | 331 | 6.4 | 16.1 | 0.00 | 0.00 | 0.00 | 28 | 1021.5 |
| 20260503230942 | 12 | 267 | 6.4 | 17.7 | 0.00 | 0.00 | 0.00 | 28 | 1021.6 |
| 20260503230439 | 13 | 273 | 4.8 | 6.4 | 0.00 | 0.00 | 0.00 | 27 | 1021.5 |
| 20260503225937 | 12 | 327 | 9.7 | 12.9 | 0.00 | 0.00 | 0.00 | 27 | 1021.5 |
| 20260503225433 | 12 | 282 | 8.0 | 9.7 | 0.00 | 0.00 | 0.00 | 27 | 1021.5 |
| 20260503224929 | 12 | 276 | 14.5 | 20.9 | 0.00 | 0.00 | 0.00 | 27 | 1021.5 |
| 20260503224426 | 13 | 257 | 11.3 | 22.5 | 0.00 | 0.00 | 0.00 | 27 | 1021.4 |
| 20260503223924 | 12 | 328 | 6.4 | 12.9 | 0.00 | 0.00 | 0.00 | 29 | 1021.6 |
| 20260503223422 | 12 | 292 | 14.5 | 25.7 | 0.00 | 0.00 | 0.00 | 28 | 1021.6 |
| 20260503222917 | 11 | 321 | 4.8 | 11.3 | 0.00 | 0.00 | 0.00 | 29 | 1021.6 |
| 20260503222416 | 12 | 264 | 4.8 | 12.9 | 0.00 | 0.00 | 0.00 | 29 | 1021.6 |
| 20260503221914 | 11 | 221 | 4.8 | 11.3 | 0.00 | 0.00 | 0.00 | 29 | 1021.9 |
| 20260503221412 | 11 | 237 | 12.9 | 17.7 | 0.00 | 0.00 | 0.00 | 27 | 1022.0 |
| 20260503220908 | 11 | 279 | 6.4 | 12.9 | 0.00 | 0.00 | 0.00 | 31 | 1022.1 |
| 20260503220404 | 11 | 243 | 1.6 | 12.9 | 0.00 | 0.00 | 0.00 | 29 | 1022.3 |
| 20260503215901 | 11 | 290 | 9.7 | 12.9 | 0.00 | 0.00 | 0.00 | 28 | 1022.3 |
| 20260503215358 | 11 | 270 | 4.8 | 14.5 | 0.00 | 0.00 | 0.00 | 28 | 1022.4 |
| 20260503214856 | 11 | 260 | 4.8 | 14.5 | 0.00 | 0.00 | 0.00 | 29 | 1022.1 |
| 20260503214353 | 11 | 252 | 8.0 | 9.7 | 0.00 | 0.00 | 0.00 | 29 | 1022.3 |
| 20260503213850 | 11 | 268 | 0.0 | 3.2 | 0.00 | 0.00 | 0.00 | 29 | 1022.4 |
| 20260503213348 | 11 | 235 | 4.8 | 12.9 | 0.00 | 0.00 | 0.00 | 29 | 1022.4 |
| 20260503212845 | 12 | 269 | 0.0 | 1.6 | 0.00 | 0.00 | 0.00 | 28 | 1022.8 |
| 20260503212343 | 11 | 296 | 4.8 | 11.3 | 0.00 | 0.00 | 0.00 | 28 | 1022.7 |
| 20260503211839 | 12 | 216 | 8.0 | 14.5 | 0.00 | 0.00 | 0.00 | 29 | 1022.7 |
| 20260503211336 | 12 | 326 | 4.8 | 11.3 | 0.00 | 0.00 | 0.00 | 27 | 1022.5 |
| 20260503210831 | 12 | 94 | 6.4 | 9.7 | 0.00 | 0.00 | 0.00 | 25 | 1022.8 |
| 20260503210329 | 12 | 290 | 6.4 | 11.3 | 0.00 | 0.00 | 0.00 | 25 | 1022.7 |
| 20260503205824 | 12 | 290 | 3.2 | 4.8 | 0.00 | 0.00 | 0.00 | 26 | 1022.9 |
| 20260503205321 | 12 | 296 | 1.6 | 6.4 | 0.00 | 0.00 | 0.00 | 25 | 1022.9 |
| 20260503204817 | 12 | 195 | 3.2 | 9.7 | 0.00 | 0.00 | 0.00 | 26 | 1023.1 |
| 20260503204315 | 11 | 264 | 1.6 | 9.7 | 0.00 | 0.00 | 0.00 | 28 | 1023.3 |
| 20260503203812 | 12 | 242 | 6.4 | 22.5 | 0.00 | 0.00 | 0.00 | 27 | 1023.3 |
| 20260503203309 | 11 | 13 | 1.6 | 4.8 | 0.00 | 0.00 | 0.00 | 28 | 1023.1 |
| 20260503202806 | 11 | 253 | 1.6 | 9.7 | 0.00 | 0.00 | 0.00 | 26 | 1023.3 |
| 20260503202304 | 11 | 273 | 3.2 | 6.4 | 0.00 | 0.00 | 0.00 | 28 | 1023.7 |
| 20260503201802 | 11 | 325 | 9.7 | 20.9 | 0.00 | 0.00 | 0.00 | 28 | 1023.5 |
| 20260503201259 | 11 | 346 | 11.3 | 14.5 | 0.00 | 0.00 | 0.00 | 28 | 1023.3 |
| 20260503200756 | 11 | 1 | 11.3 | 20.9 | 0.00 | 0.00 | 0.00 | 28 | 1023.5 |
| 20260503200251 | 11 | 308 | 11.3 | 22.5 | 0.00 | 0.00 | 0.00 | 28 | 1023.3 |
| 20260503195743 | 11 | 267 | 3.2 | 14.5 | 0.00 | 0.00 | 0.00 | 29 | 1023.3 |
| 20260503195240 | 11 | 272 | 1.6 | 9.7 | 0.00 | 0.00 | 0.00 | 26 | 1023.7 |
| 20260503194738 | 11 | 300 | 8.0 | 20.9 | 0.00 | 0.00 | 0.00 | 27 | 1023.5 |
| 20260503194233 | 12 | 259 | 9.7 | 17.7 | 0.00 | 0.00 | 0.00 | 26 | 1023.5 |
| 20260503193729 | 12 | 249 | 4.8 | 14.5 | 0.00 | 0.00 | 0.00 | 24 | 1023.9 |
| 20260503193226 | 11 | 242 | 3.2 | 4.8 | 0.00 | 0.00 | 0.00 | 26 | 1023.5 |
| 20260503192721 | 11 | 217 | 6.4 | 9.7 | 0.00 | 0.00 | 0.00 | 26 | 1023.7 |
| 20260503192217 | 11 | 271 | 4.8 | 11.3 | 0.00 | 0.00 | 0.00 | 26 | 1023.7 |
| 20260503191714 | 11 | 266 | 3.2 | 14.5 | 0.00 | 0.00 | 0.00 | 29 | 1023.7 |
| 20260503191211 | 11 | 291 | 4.8 | 6.4 | 0.00 | 0.00 | 0.00 | 29 | 1024.0 |
| 20260503190708 | 11 | 248 | 9.7 | 14.5 | 0.00 | 0.00 | 0.00 | 28 | 1024.0 |
| 20260503190204 | 11 | 311 | 3.2 | 6.4 | 0.00 | 0.00 | 0.00 | 27 | 1024.1 |
| 20260503185702 | 11 | 294 | 4.8 | 16.1 | 0.00 | 0.00 | 0.00 | 26 | 1024.4 |
| 20260503185156 | 11 | 233 | 8.0 | 16.1 | 0.00 | 0.00 | 0.00 | 26 | 1023.9 |
| 20260503184651 | 11 | 258 | 3.2 | 17.7 | 0.00 | 0.00 | 0.00 | 28 | 1024.3 |
| 20260503184148 | 11 | 294 | 4.8 | 9.7 | 0.00 | 0.00 | 0.00 | 29 | 1024.6 |
| 20260503183644 | 11 | 224 | 6.4 | 9.7 | 0.00 | 0.00 | 0.00 | 27 | 1024.4 |
| 20260503183142 | 11 | 220 | 9.7 | 11.3 | 0.00 | 0.00 | 0.00 | 28 | 1024.6 |
| 20260503182640 | 11 | 290 | 8.0 | 9.7 | 0.00 | 0.00 | 0.00 | 28 | 1024.8 |
| 20260503182139 | 11 | 278 | 4.8 | 9.7 | 0.00 | 0.00 | 0.00 | 28 | 1024.6 |
| 20260503181635 | 11 | 250 | 1.6 | 4.8 | 0.00 | 0.00 | 0.00 | 29 | 1024.6 |